• In Uzbekistan
  • List of Countries
  • For 7 days
  • Water Temperature
  • Satellite Maps
  • Weather Map
  • Weather Widgets
  • user-avatar
    Login

    Hourly Weather Jalalabad

    Today, 17 July, Wednesday

    Time Temperature Precipitation Wind Pressure Humidity
    00:00 +33°C° 0.5 mm 3 mps 704 mmHg 63%
    01:00 +31°C° 0.5 mm 2 mps 704 mmHg 66%
    02:00 +31°C° 0.5 mm 1 mps 703 mmHg 68%
    03:00 +30°C° 0.3 mm 1 mps 704 mmHg 69%
    04:00 +30°C° 0.3 mm 1 mps 704 mmHg 69%
    05:00 +28°C° 0 mm 0 mps 704 mmHg 71%
    06:00 +31°C° 0.1 mm 1 mps 704 mmHg 69%
    07:00 +31°C° 0.1 mm 1 mps 704 mmHg 67%
    08:00 +31°C° 0.1 mm 2 mps 704 mmHg 65%
    09:00 +32°C° 0 mm 2 mps 704 mmHg 61%
    10:00 +34°C° 0 mm 2 mps 704 mmHg 56%
    11:00 +36°C° 0 mm 3 mps 704 mmHg 48%
    12:00 +37°C° 0 mm 3 mps 704 mmHg 45%
    13:00 +38°C° 0 mm 4 mps 703 mmHg 42%
    14:00 +40°C° 0 mm 5 mps 703 mmHg 40%
    15:00 +40°C° 0 mm 5 mps 703 mmHg 41%
    16:00 +39°C° 0 mm 6 mps 703 mmHg 42%
    17:00 +39°C° 0 mm 6 mps 703 mmHg 43%
    18:00 +38°C° 0 mm 6 mps 703 mmHg 46%
    19:00 +36°C° 0 mm 5 mps 703 mmHg 49%
    20:00 +36°C° 0 mm 4 mps 703 mmHg 52%
    21:00 +35°C° 0 mm 4 mps 704 mmHg 53%
    22:00 +35°C° 0 mm 3 mps 704 mmHg 54%
    23:00 +35°C° 0 mm 2 mps 704 mmHg 55%

    Tomorrow, 18 July, Thursday

    Time Temperature Precipitation Wind Pressure Humidity
    00:00 +34°C° 0.1 mm 2 mps 704 mmHg 56%
    01:00 +33°C° 0.1 mm 1 mps 704 mmHg 57%
    02:00 +33°C° 0.1 mm 1 mps 704 mmHg 58%
    03:00 +32°C° 0.5 mm 1 mps 704 mmHg 60%
    04:00 +32°C° 0.5 mm 1 mps 704 mmHg 62%
    05:00 +31°C° 0.5 mm 1 mps 704 mmHg 64%
    06:00 +31°C° 0.1 mm 1 mps 704 mmHg 62%
    07:00 +32°C° 0.1 mm 1 mps 704 mmHg 61%
    08:00 +32°C° 0.1 mm 2 mps 704 mmHg 59%
    09:00 +34°C° 0 mm 2 mps 704 mmHg 55%
    10:00 +35°C° 0 mm 2 mps 704 mmHg 50%
    11:00 +37°C° 0 mm 2 mps 704 mmHg 46%
    12:00 +38°C° 0 mm 3 mps 704 mmHg 42%
    13:00 +39°C° 0 mm 3 mps 703 mmHg 38%
    14:00 +41°C° 0 mm 4 mps 703 mmHg 34%
    15:00 +41°C° 0 mm 4 mps 703 mmHg 33%
    16:00 +41°C° 0 mm 5 mps 703 mmHg 32%
    17:00 +42°C° 0 mm 5 mps 703 mmHg 30%
    18:00 +41°C° 0 mm 5 mps 703 mmHg 34%
    19:00 +40°C° 0 mm 5 mps 703 mmHg 38%
    20:00 +39°C° 0 mm 5 mps 703 mmHg 41%
    21:00 +37°C° 0 mm 4 mps 704 mmHg 44%
    22:00 +37°C° 0 mm 3 mps 704 mmHg 46%
    23:00 +36°C° 0 mm 3 mps 704 mmHg 49%

    Day after tomorrow, 19 July, Friday

    Time Temperature Precipitation Wind Pressure Humidity
    00:00 +36°C° 0 mm 2 mps 704 mmHg 50%
    01:00 +35°C° 0 mm 2 mps 704 mmHg 52%
    02:00 +34°C° 0 mm 1 mps 704 mmHg 53%
    03:00 +33°C° 0.1 mm 1 mps 704 mmHg 55%
    04:00 +33°C° 0.1 mm 1 mps 704 mmHg 57%
    05:00 +32°C° 0.1 mm 1 mps 704 mmHg 58%
    06:00 +33°C° 0 mm 1 mps 704 mmHg 57%
    07:00 +33°C° 0 mm 1 mps 704 mmHg 55%
    08:00 +34°C° 0 mm 1 mps 704 mmHg 53%
    09:00 +36°C° 0 mm 2 mps 704 mmHg 49%
    10:00 +37°C° 0 mm 2 mps 704 mmHg 45%
    11:00 +38°C° 0 mm 3 mps 704 mmHg 41%
    12:00 +39°C° 0 mm 3 mps 704 mmHg 38%
    13:00 +41°C° 0 mm 4 mps 704 mmHg 35%
    14:00 +42°C° 0 mm 4 mps 704 mmHg 32%
    15:00 +42°C° 0 mm 4 mps 704 mmHg 32%
    16:00 +42°C° 0 mm 5 mps 703 mmHg 32%
    17:00 +42°C° 0 mm 5 mps 703 mmHg 32%
    18:00 +41°C° 0.1 mm 5 mps 704 mmHg 35%
    19:00 +40°C° 0.1 mm 4 mps 704 mmHg 38%
    20:00 +38°C° 0.1 mm 4 mps 704 mmHg 41%
    21:00 +38°C° 0.1 mm 4 mps 705 mmHg 43%
    22:00 +37°C° 0.1 mm 3 mps 705 mmHg 45%
    23:00 +37°C° 0.1 mm 3 mps 705 mmHg 47%

    20 July, Saturday

    Time Temperature Precipitation Wind Pressure Humidity
    00:00 +36°C° 0.1 mm 2 mps 705 mmHg 49%
    01:00 +36°C° 0.1 mm 2 mps 705 mmHg 52%
    02:00 +34°C° 0.1 mm 1 mps 705 mmHg 55%
    03:00 +34°C° 0 mm 1 mps 705 mmHg 56%
    04:00 +34°C° 0 mm 1 mps 705 mmHg 58%
    05:00 +31°C° 0 mm 0 mps 704 mmHg 59%
    06:00 +34°C° 0 mm 1 mps 705 mmHg 57%
    07:00 +34°C° 0 mm 1 mps 705 mmHg 55%
    08:00 +35°C° 0 mm 1 mps 705 mmHg 53%
    09:00 +37°C° 0 mm 2 mps 705 mmHg 49%
    10:00 +38°C° 0 mm 2 mps 705 mmHg 45%
    11:00 +39°C° 0 mm 3 mps 705 mmHg 40%
    12:00 +40°C° 0 mm 3 mps 705 mmHg 37%
    13:00 +42°C° 0 mm 3 mps 705 mmHg 34%
    14:00 +43°C° 0 mm 4 mps 704 mmHg 31%
    15:00 +43°C° 0 mm 4 mps 704 mmHg 31%
    16:00 +43°C° 0 mm 4 mps 704 mmHg 31%
    17:00 +43°C° 0 mm 5 mps 703 mmHg 31%
    18:00 +42°C° 0 mm 5 mps 704 mmHg 35%
    19:00 +41°C° 0 mm 4 mps 704 mmHg 38%
    20:00 +40°C° 0 mm 4 mps 704 mmHg 42%
    21:00 +39°C° 0 mm 3 mps 704 mmHg 44%
    22:00 +38°C° 0 mm 3 mps 704 mmHg 45%
    23:00 +38°C° 0 mm 2 mps 705 mmHg 47%

    21 July, Sunday

    Time Temperature Precipitation Wind Pressure Humidity
    00:00 +37°C° 0 mm 2 mps 704 mmHg 49%
    01:00 +37°C° 0 mm 2 mps 704 mmHg 51%
    02:00 +36°C° 0 mm 2 mps 704 mmHg 53%
    03:00 +35°C° 0 mm 1 mps 704 mmHg 55%
    04:00 +34°C° 0 mm 1 mps 703 mmHg 56%
    05:00 +32°C° 0 mm 0 mps 703 mmHg 58%
    06:00 +32°C° 0 mm 0 mps 703 mmHg 55%
    07:00 +33°C° 0 mm 0 mps 703 mmHg 52%
    08:00 +36°C° 0 mm 1 mps 704 mmHg 49%
    09:00 +37°C° 0 mm 1 mps 704 mmHg 43%
    10:00 +39°C° 0 mm 1 mps 704 mmHg 37%
    11:00 +41°C° 0 mm 2 mps 704 mmHg 31%
    12:00 +42°C° 0 mm 2 mps 703 mmHg 28%
    13:00 +44°C° 0 mm 3 mps 703 mmHg 25%
    14:00 +45°C° 0 mm 3 mps 703 mmHg 21%
    15:00 +45°C° 0 mm 4 mps 702 mmHg 21%
    16:00 +45°C° 0 mm 4 mps 702 mmHg 21%
    17:00 +47°C° 0 mm 5 mps 702 mmHg 20%
    18:00 +44°C° 0 mm 4 mps 702 mmHg 24%
    19:00 +43°C° 0 mm 4 mps 702 mmHg 28%
    20:00 +42°C° 0 mm 4 mps 702 mmHg 32%
    21:00 +40°C° 0 mm 3 mps 703 mmHg 35%
    22:00 +40°C° 0 mm 2 mps 703 mmHg 38%
    23:00 +39°C° 0 mm 2 mps 703 mmHg 42%

    22 July, Monday

    Time Temperature Precipitation Wind Pressure Humidity
    00:00 +37°C° 0 mm 1 mps 703 mmHg 43%
    01:00 +37°C° 0 mm 1 mps 703 mmHg 44%
    02:00 +36°C° 0 mm 1 mps 702 mmHg 45%
    03:00 +35°C° 0 mm 1 mps 702 mmHg 46%
    04:00 +33°C° 0 mm 0 mps 702 mmHg 47%
    05:00 +33°C° 0 mm 0 mps 702 mmHg 48%
    06:00 +33°C° 0 mm 0 mps 703 mmHg 44%
    07:00 +34°C° 0 mm 0 mps 703 mmHg 40%
    08:00 +37°C° 0 mm 1 mps 703 mmHg 37%
    09:00 +39°C° 0 mm 1 mps 703 mmHg 32%
    10:00 +41°C° 0 mm 1 mps 703 mmHg 27%
    11:00 +42°C° 0 mm 2 mps 703 mmHg 23%
    12:00 +43°C° 0 mm 2 mps 703 mmHg 20%
    13:00 +45°C° 0 mm 3 mps 702 mmHg 18%
    14:00 +46°C° 0 mm 3 mps 702 mmHg 15%
    15:00 +46°C° 0 mm 3 mps 701 mmHg 14%
    16:00 +47°C° 0 mm 3 mps 701 mmHg 13%
    17:00 +47°C° 0 mm 3 mps 701 mmHg 13%
    18:00 +46°C° 0 mm 3 mps 701 mmHg 17%
    19:00 +44°C° 0 mm 3 mps 701 mmHg 22%
    20:00 +43°C° 0 mm 3 mps 701 mmHg 26%
    21:00 +41°C° 0 mm 2 mps 701 mmHg 29%
    22:00 +40°C° 0 mm 2 mps 701 mmHg 32%
    23:00 +39°C° 0 mm 1 mps 702 mmHg 35%
    Show more